THY3 LTFM-KJFK

Flight info

Callsign THY3
Flight time N/A
Altitude 34000
Route TUDBU Q26 ETUBA T226 NAVOD DCT MOPUG DCT BEGLA DCT DITIS DCT SOPGA DCT VARIK L602 PEROX Z715 UNAVI Z93 KODUK/N0424F240 Z93 ETOLU/N0436F260 Z719 BIBTA/N0424F240 N850 GISEM Z505 ARPEG/N0469F340 Z850 HMM L602 SPY/N0470F360 L602 MIMVA DCT OTBED Y70 GOLES/N0424F240 L975 DESIG L70 PENIL/N0469F360 M144 BAGSO DCT DOGAL/M082F370 NATC ELSIR/N0474F380 N402C ALLEX DCT ENE PARCH4
Aircraft A339/H-SADE1E2E3GHIJ3J5M1P2RWXY/LB2D1

Departure

Time 2026-05-07 10:43
Airport İstanbul Airport (LTFM)

Arrival

Time N/A
Airport John F. Kennedy International Airport (KJFK)
Time Latitude Longitude Altitude Speed Heading
2026-05-07 09:57 41.26640 28.73762 341 ft 0 kts 270°
2026-05-07 10:17 41.26640 28.73776 342 ft 2 kts 270°
2026-05-07 10:18 41.26640 28.73796 341 ft 2 kts 270°
2026-05-07 10:18 41.26640 28.73816 342 ft 2 kts 270°
2026-05-07 10:18 41.26640 28.73834 341 ft 0 kts 270°
2026-05-07 10:18 41.26641 28.73849 341 ft 2 kts 251°
2026-05-07 10:19 41.26649 28.73866 341 ft 2 kts 218°
2026-05-07 10:19 41.26662 28.73875 342 ft 2 kts 189°
2026-05-07 10:19 41.26669 28.73876 342 ft 1 kts 177°
2026-05-07 10:19 41.26672 28.73875 342 ft 0 kts 178°
2026-05-07 10:21 41.26671 28.73875 342 ft 0 kts 178°
2026-05-07 10:21 41.26659 28.73876 342 ft 2 kts 178°
2026-05-07 10:21 41.26634 28.73877 342 ft 4 kts 178°
2026-05-07 10:21 41.26597 28.73878 342 ft 6 kts 179°
2026-05-07 10:22 41.26554 28.73893 342 ft 6 kts 141°
2026-05-07 10:22 41.26545 28.73956 342 ft 7 kts 82°
2026-05-07 10:22 41.26575 28.74019 342 ft 8 kts 33°
2026-05-07 10:22 41.26635 28.74025 342 ft 9 kts 352°
2026-05-07 10:23 41.26704 28.74022 342 ft 10 kts
2026-05-07 10:23 41.26776 28.74019 342 ft 9 kts 358°
2026-05-07 10:23 41.26838 28.74016 342 ft 9 kts 359°
2026-05-07 10:23 41.26905 28.74014 342 ft 9 kts 359°
2026-05-07 10:24 41.26977 28.74013 342 ft 10 kts 359°
2026-05-07 10:24 41.27034 28.73988 342 ft 8 kts 305°
2026-05-07 10:24 41.27041 28.73905 341 ft 9 kts 268°
2026-05-07 10:24 41.27039 28.73810 341 ft 10 kts 269°
2026-05-07 10:25 41.27038 28.73745 342 ft 11 kts 269°
2026-05-07 10:25 41.27037 28.73671 342 ft 11 kts 269°
2026-05-07 10:25 41.27035 28.73560 342 ft 12 kts 269°
2026-05-07 10:25 41.27035 28.73444 341 ft 12 kts 270°
2026-05-07 10:26 41.27035 28.73324 341 ft 13 kts 270°
2026-05-07 10:26 41.27034 28.73211 341 ft 11 kts 270°
2026-05-07 10:26 41.27034 28.73120 342 ft 9 kts 270°
2026-05-07 10:26 41.27030 28.73042 341 ft 8 kts 254°
2026-05-07 10:27 41.26987 28.72992 342 ft 9 kts 198°
2026-05-07 10:27 41.26922 28.72984 342 ft 9 kts 179°
2026-05-07 10:27 41.26859 28.72986 342 ft 6 kts 179°
2026-05-07 10:27 41.26809 28.72988 342 ft 7 kts 178°
2026-05-07 10:28 41.26750 28.72990 342 ft 8 kts 178°
2026-05-07 10:28 41.26687 28.72994 342 ft 9 kts 178°
2026-05-07 10:28 41.26621 28.73000 342 ft 9 kts 163°
2026-05-07 10:28 41.26579 28.73054 342 ft 8 kts 115°
2026-05-07 10:29 41.26533 28.73107 342 ft 9 kts 162°
2026-05-07 10:29 41.26468 28.73128 342 ft 10 kts 166°
2026-05-07 10:29 41.26403 28.73124 342 ft 9 kts 189°
2026-05-07 10:30 41.26260 28.73114 342 ft 11 kts 179°
2026-05-07 10:30 41.26180 28.73116 342 ft 11 kts 179°
2026-05-07 10:30 41.26096 28.73119 342 ft 12 kts 178°
2026-05-07 10:30 41.26008 28.73123 342 ft 12 kts 178°
2026-05-07 10:31 41.25917 28.73126 342 ft 13 kts 179°
2026-05-07 10:31 41.25824 28.73126 342 ft 13 kts 180°
2026-05-07 10:31 41.25728 28.73126 342 ft 13 kts 180°
2026-05-07 10:31 41.25632 28.73127 342 ft 14 kts 179°
2026-05-07 10:32 41.25531 28.73129 342 ft 14 kts 179°
2026-05-07 10:32 41.25432 28.73132 342 ft 14 kts 179°
2026-05-07 10:32 41.25339 28.73117 342 ft 10 kts 220°
2026-05-07 10:32 41.25330 28.73031 342 ft 10 kts 271°
2026-05-07 10:33 41.25329 28.72935 342 ft 10 kts 268°
2026-05-07 10:33 41.25327 28.72830 342 ft 11 kts 269°
2026-05-07 10:33 41.25325 28.72720 342 ft 12 kts 269°
2026-05-07 10:33 41.25324 28.72605 342 ft 12 kts 270°
2026-05-07 10:34 41.25324 28.72486 342 ft 13 kts 270°
2026-05-07 10:34 41.25325 28.72363 342 ft 13 kts 271°
2026-05-07 10:34 41.25355 28.72249 342 ft 13 kts 314°
2026-05-07 10:34 41.25440 28.72207 342 ft 13 kts 357°
2026-05-07 10:35 41.25536 28.72203 342 ft 13 kts 360°
2026-05-07 10:35 41.25633 28.72203 342 ft 14 kts
2026-05-07 10:35 41.25732 28.72208 342 ft 14 kts
2026-05-07 10:35 41.25832 28.72222 342 ft 14 kts
2026-05-07 10:36 41.25932 28.72240 342 ft 14 kts
2026-05-07 10:36 41.26027 28.72258 342 ft 10 kts
2026-05-07 10:36 41.26086 28.72269 342 ft 7 kts
2026-05-07 10:36 41.26107 28.72273 342 ft 0 kts
2026-05-07 10:40 41.26117 28.72275 342 ft 2 kts
2026-05-07 10:41 41.26136 28.72279 342 ft 3 kts
2026-05-07 10:41 41.26165 28.72286 341 ft 4 kts 15°
2026-05-07 10:41 41.26192 28.72314 341 ft 5 kts 65°
2026-05-07 10:41 41.26197 28.72372 342 ft 6 kts 87°
2026-05-07 10:42 41.26200 28.72442 342 ft 8 kts 88°
2026-05-07 10:42 41.26222 28.72507 342 ft 8 kts 32°
2026-05-07 10:42 41.26269 28.72522 342 ft 0 kts
2026-05-07 10:42 41.26304 28.72524 342 ft 23 kts
2026-05-07 10:43 41.26683 28.72518 342 ft 85 kts 360°
2026-05-07 10:43 41.27477 28.72506 342 ft 140 kts 359°
2026-05-07 10:43 41.28630 28.72475 369 ft 183 kts 357°
2026-05-07 10:43 41.29865 28.72441 1032 ft 176 kts
2026-05-07 10:44 41.31072 28.72427 1651 ft 176 kts
2026-05-07 10:44 41.32326 28.72447 2118 ft 183 kts
2026-05-07 10:44 41.33617 28.72497 2418 ft 193 kts
2026-05-07 10:44 41.34997 28.72553 2709 ft 204 kts 359°
2026-05-07 10:45 41.36466 28.72553 2990 ft 216 kts 357°
2026-05-07 10:45 41.37993 28.72417 3245 ft 229 kts 346°
2026-05-07 10:45 41.39549 28.71728 3518 ft 242 kts 329°
2026-05-07 10:45 41.41069 28.70613 3855 ft 255 kts 334°
2026-05-07 10:46 41.42718 28.69641 4264 ft 265 kts 330°
2026-05-07 10:46 41.44314 28.68493 4795 ft 262 kts 333°
2026-05-07 10:46 41.45967 28.67484 5336 ft 263 kts 335°
2026-05-07 10:46 41.47639 28.66484 5982 ft 262 kts 334°
2026-05-07 10:47 41.49278 28.65479 6594 ft 262 kts 334°
2026-05-07 10:47 41.50923 28.64448 7155 ft 264 kts 334°
2026-05-07 10:47 41.52588 28.63390 7694 ft 266 kts 334°
2026-05-07 10:47 41.54250 28.62328 8228 ft 268 kts 334°
2026-05-07 10:48 41.55938 28.61247 8782 ft 270 kts 334°
2026-05-07 10:48 41.57557 28.59946 9310 ft 272 kts 322°
2026-05-07 10:48 41.58928 28.58231 9826 ft 274 kts 314°
2026-05-07 10:48 41.60215 28.56354 10288 ft 279 kts 313°
2026-05-07 10:49 41.61544 28.54385 10526 ft 292 kts 313°
2026-05-07 10:49 41.62931 28.52333 10755 ft 305 kts 313°
2026-05-07 10:49 41.64396 28.50178 11000 ft 318 kts 313°
2026-05-07 10:49 41.65889 28.47934 11228 ft 331 kts 310°
2026-05-07 10:50 41.67252 28.45355 11442 ft 345 kts 302°
2026-05-07 10:50 41.68382 28.42463 11652 ft 358 kts 296°
2026-05-07 10:50 41.69406 28.39387 11917 ft 369 kts 295°
2026-05-07 10:50 41.70436 28.36207 12349 ft 374 kts 295°
2026-05-07 10:51 41.71462 28.33035 12862 ft 377 kts 294°
2026-05-07 10:51 41.72511 28.29794 13366 ft 380 kts 295°
2026-05-07 10:51 41.73572 28.26527 13853 ft 384 kts 295°
2026-05-07 10:51 41.74632 28.23263 14342 ft 387 kts 295°
2026-05-07 10:52 41.75708 28.19950 14882 ft 388 kts 295°
2026-05-07 10:52 41.76789 28.16621 15412 ft 390 kts 295°
2026-05-07 10:52 41.77875 28.13275 15924 ft 392 kts 295°
2026-05-07 10:52 41.79069 28.09992 16406 ft 394 kts 300°
2026-05-07 10:53 41.80470 28.06836 16913 ft 396 kts 304°
2026-05-07 10:53 41.82060 28.03821 17396 ft 397 kts 307°
2026-05-07 10:53 41.83705 28.00877 17880 ft 400 kts 308°
2026-05-07 10:53 41.85381 27.97903 18359 ft 402 kts 308°
2026-05-07 10:54 41.87077 27.94890 18818 ft 404 kts 308°
2026-05-07 10:54 41.88771 27.91871 19303 ft 405 kts 308°
2026-05-07 10:54 41.90444 27.88886 19794 ft 407 kts 308°
2026-05-07 10:54 41.92152 27.85831 20268 ft 408 kts 308°
2026-05-07 10:55 41.93849 27.82791 20699 ft 410 kts 308°
2026-05-07 10:55 41.95576 27.79762 21131 ft 411 kts 309°
2026-05-07 10:55 41.97417 27.76846 21574 ft 411 kts 313°
2026-05-07 10:55 41.99381 27.74048 21989 ft 412 kts 315°
2026-05-07 10:56 42.01396 27.71281 22401 ft 414 kts 315°
2026-05-07 10:56 42.03409 27.68531 22785 ft 415 kts 315°
2026-05-07 10:56 42.05427 27.65774 23157 ft 417 kts 315°
2026-05-07 10:56 42.07480 27.62965 23540 ft 418 kts 315°
2026-05-07 10:57 42.09522 27.60168 23905 ft 420 kts 315°
2026-05-07 10:57 42.11566 27.57362 24230 ft 422 kts 315°
2026-05-07 10:57 42.13618 27.54541 24570 ft 424 kts 315°
2026-05-07 10:57 42.15684 27.51699 24923 ft 425 kts 315°
2026-05-07 10:58 42.17759 27.48840 25263 ft 427 kts 315°
2026-05-07 10:58 42.19831 27.45984 25570 ft 429 kts 315°
2026-05-07 10:58 42.21919 27.43102 25863 ft 431 kts 315°
2026-05-07 10:58 42.24041 27.40172 26153 ft 433 kts 315°
2026-05-07 10:59 42.26141 27.37267 26445 ft 435 kts 314°
2026-05-07 10:59 42.28256 27.34339 26747 ft 436 kts 314°
2026-05-07 10:59 42.30350 27.31435 27041 ft 438 kts 314°
2026-05-07 10:59 42.32471 27.28490 27289 ft 440 kts 314°
2026-05-07 11:00 42.34605 27.25529 27625 ft 440 kts 314°
2026-05-07 11:00 42.36737 27.22564 28043 ft 438 kts 314°
2026-05-07 11:00 42.38864 27.19603 28437 ft 437 kts 314°
2026-05-07 11:00 42.40966 27.16676 28791 ft 436 kts 314°
2026-05-07 11:01 42.43074 27.13735 29145 ft 435 kts 314°
2026-05-07 11:01 42.45180 27.10796 29497 ft 434 kts 314°
2026-05-07 11:01 42.47268 27.07877 29840 ft 433 kts 314°
2026-05-07 11:01 42.49343 27.04973 30204 ft 432 kts 314°
2026-05-07 11:02 42.51449 27.02022 30562 ft 431 kts 314°
2026-05-07 11:02 42.53525 26.99111 30921 ft 429 kts 314°
2026-05-07 11:02 42.55573 26.96238 31266 ft 428 kts 314°
2026-05-07 11:02 42.57653 26.93317 31578 ft 427 kts 314°
2026-05-07 11:03 42.59710 26.90422 31868 ft 427 kts 314°
2026-05-07 11:03 42.61738 26.87566 32167 ft 426 kts 314°
2026-05-07 11:03 42.63805 26.84653 32453 ft 425 kts 314°
2026-05-07 11:03 42.65826 26.81801 32676 ft 425 kts 314°
2026-05-07 11:04 42.67875 26.78905 32882 ft 426 kts 314°
2026-05-07 11:04 42.69928 26.76001 33060 ft 427 kts 314°
2026-05-07 11:04 42.72002 26.73063 33241 ft 428 kts 313°
2026-05-07 11:04 42.74063 26.70142 33426 ft 429 kts 313°
2026-05-07 11:05 42.76117 26.67223 33626 ft 429 kts 313°
2026-05-07 11:05 42.78103 26.64198 33827 ft 429 kts 310°
2026-05-07 11:05 42.79973 26.61044 34014 ft 430 kts 307°
2026-05-07 11:05 42.81732 26.57747 34062 ft 431 kts 304°
2026-05-07 11:06 42.84859 26.50824 34073 ft 431 kts 299°
2026-05-07 11:06 42.87673 26.43620 34077 ft 432 kts 298°
2026-05-07 11:07 42.90457 26.36417 34074 ft 432 kts 298°
2026-05-07 11:07 42.93250 26.29166 34074 ft 433 kts 298°
2026-05-07 11:08 42.96039 26.21914 34072 ft 433 kts 297°
2026-05-07 11:08 42.98834 26.14629 34069 ft 433 kts 297°
2026-05-07 11:09 43.01613 26.07364 34062 ft 432 kts 297°
2026-05-07 11:09 43.04392 26.00081 34050 ft 433 kts 297°
2026-05-07 11:10 43.07180 25.92753 34045 ft 434 kts 297°
2026-05-07 11:10 43.09950 25.85446 34035 ft 434 kts 297°
2026-05-07 11:11 43.12727 25.78103 34032 ft 436 kts 297°
2026-05-07 11:11 43.15690 25.70910 34037 ft 436 kts 302°
2026-05-07 11:12 43.19142 25.64073 34049 ft 437 kts 305°
2026-05-07 11:12 43.22700 25.57378 34047 ft 437 kts 305°
2026-05-07 11:13 43.26294 25.50612 34048 ft 437 kts 305°
2026-05-07 11:13 43.29857 25.43879 34047 ft 437 kts 305°
2026-05-07 11:14 43.33419 25.37135 34045 ft 438 kts 305°
2026-05-07 11:14 43.36977 25.30377 34042 ft 437 kts 304°
2026-05-07 11:15 43.40538 25.23602 34039 ft 437 kts 304°
2026-05-07 11:15 43.44085 25.16831 34032 ft 438 kts 304°
2026-05-07 11:16 43.47646 25.10024 34032 ft 439 kts 304°
2026-05-07 11:16 43.51202 25.03209 34030 ft 439 kts 304°
2026-05-07 11:17 43.54739 24.96415 34027 ft 440 kts 304°
2026-05-07 11:17 43.58318 24.89523 34029 ft 440 kts 304°
2026-05-07 11:18 43.61863 24.82680 34028 ft 441 kts 304°
2026-05-07 11:18 43.65421 24.75792 34027 ft 440 kts 304°
2026-05-07 11:19 43.68959 24.68926 34030 ft 440 kts 303°
2026-05-07 11:19 43.72507 24.62025 34026 ft 441 kts 303°
2026-05-07 11:20 43.76198 24.55286 34027 ft 444 kts 308°
2026-05-07 11:20 43.80322 24.48935 34022 ft 445 kts 310°
2026-05-07 11:21 43.84508 24.42667 34026 ft 445 kts 311°
2026-05-07 11:21 43.88723 24.36342 34026 ft 447 kts 311°
2026-05-07 11:22 43.92909 24.30042 34033 ft 446 kts 310°
2026-05-07 11:22 43.97123 24.23679 34031 ft 447 kts 310°
2026-05-07 11:23 44.01301 24.17358 34032 ft 447 kts 310°
2026-05-07 11:23 44.05502 24.10985 34032 ft 447 kts 310°
2026-05-07 11:24 44.09689 24.04619 34038 ft 447 kts 309°
2026-05-07 11:24 44.13869 23.98246 34039 ft 447 kts 310°
2026-05-07 11:25 44.18060 23.91845 34043 ft 448 kts 310°
2026-05-07 11:25 44.22245 23.85442 34046 ft 448 kts 309°
2026-05-07 11:26 44.26421 23.79037 34047 ft 448 kts 309°
2026-05-07 11:26 44.30606 23.72602 34045 ft 447 kts 309°
2026-05-07 11:27 44.34757 23.66202 34044 ft 447 kts 309°
2026-05-07 11:27 44.38936 23.59746 34042 ft 447 kts 309°
2026-05-07 11:28 44.43077 23.53334 34039 ft 447 kts 309°
2026-05-07 11:28 44.47236 23.46879 34037 ft 448 kts 309°
2026-05-07 11:29 44.51386 23.40421 34038 ft 448 kts 309°
2026-05-07 11:29 44.55557 23.33920 34038 ft 448 kts 308°
2026-05-07 11:30 44.59699 23.27449 34037 ft 448 kts 308°
2026-05-07 11:30 44.63845 23.20953 34038 ft 448 kts 308°
2026-05-07 11:31 44.67994 23.14440 34038 ft 448 kts 308°
2026-05-07 11:31 44.72134 23.07926 34036 ft 448 kts 307°
2026-05-07 11:32 44.78346 22.98121 34034 ft 449 kts 307°
2026-05-07 11:33 44.82492 22.91558 34035 ft 450 kts 307°
2026-05-07 11:33 44.86635 22.84983 34036 ft 450 kts 307°
2026-05-07 11:34 44.90797 22.78365 34038 ft 451 kts 307°
2026-05-07 11:34 44.94936 22.71767 34040 ft 451 kts 307°
2026-05-07 11:35 44.99070 22.65162 34042 ft 451 kts 307°
2026-05-07 11:35 45.03230 22.58499 34048 ft 451 kts 307°
2026-05-07 11:36 45.07344 22.51894 34047 ft 452 kts 307°
2026-05-07 11:36 45.11487 22.45228 34052 ft 451 kts 307°
2026-05-07 11:37 45.15628 22.38544 34053 ft 452 kts 307°
2026-05-07 11:37 45.19738 22.31900 34053 ft 451 kts 307°
2026-05-07 11:38 45.23880 22.25186 34051 ft 451 kts 307°
2026-05-07 11:38 45.27973 22.18534 34047 ft 452 kts 307°
2026-05-07 11:39 45.32103 22.11810 34045 ft 453 kts 307°
2026-05-07 11:39 45.36239 22.05057 34050 ft 453 kts 307°
2026-05-07 11:40 45.40374 21.98290 34046 ft 454 kts 307°
2026-05-07 11:40 45.44481 21.91556 34039 ft 454 kts 307°
2026-05-07 11:41 45.48608 21.84769 34037 ft 454 kts 307°
2026-05-07 11:41 45.52719 21.77989 34038 ft 454 kts 307°
2026-05-07 11:42 45.56852 21.71160 34033 ft 454 kts 307°
2026-05-07 11:42 45.60970 21.64338 34032 ft 455 kts 307°
2026-05-07 11:43 45.65103 21.57475 34024 ft 456 kts 307°
2026-05-07 11:43 45.67833 21.52931 34025 ft 456 kts 307°
2026-05-07 11:44 45.71941 21.46080 34021 ft 457 kts 307°
2026-05-07 11:44 45.76098 21.39129 34026 ft 459 kts 307°
2026-05-07 11:45 45.80225 21.32214 34025 ft 459 kts 306°
2026-05-07 11:45 45.84364 21.25258 34022 ft 458 kts 306°
2026-05-07 11:46 45.88473 21.18340 34026 ft 459 kts 306°
2026-05-07 11:46 45.92601 21.11368 34021 ft 460 kts 306°
2026-05-07 11:47 45.96740 21.04360 34018 ft 460 kts 305°
2026-05-07 11:47 46.00864 20.97356 34020 ft 460 kts 305°
2026-05-07 11:48 46.05002 20.90313 34018 ft 461 kts 305°
2026-05-07 11:48 46.09127 20.83269 34022 ft 460 kts 305°
2026-05-07 11:49 46.13242 20.76221 34020 ft 459 kts 305°
2026-05-07 11:49 46.17232 20.69107 34013 ft 457 kts 301°
2026-05-07 11:50 46.20947 20.61654 34006 ft 457 kts 301°
2026-05-07 11:50 46.24616 20.54193 34002 ft 457 kts 300°
2026-05-07 11:51 46.28275 20.46735 34001 ft 457 kts 300°
2026-05-07 11:51 46.31949 20.39228 34000 ft 458 kts 300°
2026-05-07 11:52 46.35599 20.31752 34000 ft 458 kts 300°
2026-05-07 11:52 46.39257 20.24238 33997 ft 458 kts 300°
2026-05-07 11:53 46.42932 20.16674 33998 ft 457 kts 300°
2026-05-07 11:53 46.46555 20.09194 33995 ft 457 kts 300°
2026-05-07 11:54 46.50195 20.01660 33993 ft 456 kts 300°
2026-05-07 11:54 46.53825 19.94131 33995 ft 456 kts 300°
2026-05-07 11:55 46.57473 19.86541 33988 ft 456 kts 300°
2026-05-07 11:55 46.61077 19.79019 33986 ft 457 kts 300°
2026-05-07 11:56 46.64710 19.71417 33986 ft 457 kts 300°
2026-05-07 11:56 46.68319 19.63844 33983 ft 457 kts 300°
2026-05-07 11:57 46.71945 19.56217 33983 ft 458 kts 300°
2026-05-07 11:57 46.75540 19.48632 33981 ft 458 kts 300°
2026-05-07 11:58 46.79150 19.40996 33980 ft 457 kts 300°
2026-05-07 11:58 46.82749 19.33366 33978 ft 457 kts 299°
2026-05-07 11:59 46.86240 19.25943 33976 ft 456 kts 298°
2026-05-07 11:59 46.87829 19.22558 33974 ft 456 kts 298°
2026-05-07 12:00 46.91387 19.14959 33971 ft 457 kts 298°
2026-05-07 12:00 46.94973 19.07275 33970 ft 459 kts 298°
2026-05-07 12:01 46.98575 18.99542 33970 ft 460 kts 298°
2026-05-07 12:01 47.00010 18.96457 33968 ft 460 kts 298°
2026-05-07 12:02 47.02572 18.90936 33968 ft 460 kts 298°
2026-05-07 12:02 47.06154 18.83204 33973 ft 461 kts 298°
2026-05-07 12:03 47.09747 18.75424 33966 ft 460 kts 298°
2026-05-07 12:03 47.13329 18.67644 33977 ft 459 kts 298°
2026-05-07 12:04 47.16890 18.59888 33984 ft 459 kts 297°
2026-05-07 12:04 47.20440 18.52133 33982 ft 459 kts 297°
2026-05-07 12:05 47.24017 18.44297 33986 ft 460 kts 297°
2026-05-07 12:05 47.27555 18.36527 33983 ft 460 kts 297°
2026-05-07 12:06 47.31117 18.28676 33979 ft 460 kts 296°
2026-05-07 12:06 47.34661 18.20845 33972 ft 461 kts 296°
2026-05-07 12:07 47.38218 18.12965 33957 ft 461 kts 296°
2026-05-07 12:07 47.41764 18.05088 33954 ft 462 kts 296°
2026-05-07 12:08 47.45304 17.97200 33959 ft 461 kts 296°
2026-05-07 12:08 47.48837 17.89301 33957 ft 463 kts 296°
2026-05-07 12:09 47.52375 17.81369 33964 ft 462 kts 296°
2026-05-07 12:09 47.55901 17.73443 33976 ft 463 kts 296°
2026-05-07 12:10 47.59420 17.65508 33969 ft 463 kts 296°
2026-05-07 12:10 47.62959 17.57509 33971 ft 462 kts 296°
2026-05-07 12:11 47.66458 17.49569 33959 ft 462 kts 296°
2026-05-07 12:11 47.69959 17.41604 33959 ft 464 kts 296°
2026-05-07 12:12 47.73425 17.33695 33956 ft 463 kts 295°
2026-05-07 12:12 47.76957 17.25608 33957 ft 462 kts 295°
2026-05-07 12:13 47.80451 17.17580 33955 ft 464 kts 295°
2026-05-07 12:13 47.84147 17.09664 33960 ft 469 kts 301°
2026-05-07 12:14 47.88257 17.02134 33965 ft 472 kts 302°
2026-05-07 12:14 47.92453 16.94567 33964 ft 472 kts 302°
2026-05-07 12:15 47.96604 16.87039 33969 ft 472 kts 302°
2026-05-07 12:15 48.00777 16.79439 33962 ft 472 kts 302°
2026-05-07 12:16 48.04891 16.71918 33968 ft 472 kts 302°
2026-05-07 12:16 48.09052 16.64287 33968 ft 473 kts 302°
2026-05-07 12:17 48.13163 16.56726 33959 ft 473 kts 302°
2026-05-07 12:17 48.17329 16.49045 33965 ft 474 kts 302°
2026-05-07 12:18 48.21457 16.41410 33961 ft 474 kts 302°
2026-05-07 12:18 48.25596 16.33734 33967 ft 474 kts 302°
2026-05-07 12:19 48.29729 16.26048 33975 ft 474 kts 301°
2026-05-07 12:19 48.33856 16.18348 33965 ft 475 kts 301°
2026-05-07 12:20 48.37985 16.10626 33965 ft 475 kts 302°
2026-05-07 12:20 48.42104 16.02899 33967 ft 475 kts 302°
2026-05-07 12:21 48.46224 15.95147 33952 ft 476 kts 302°
2026-05-07 12:21 48.50336 15.87387 33956 ft 475 kts 302°
2026-05-07 12:22 48.54435 15.79632 33962 ft 474 kts 302°
2026-05-07 12:22 48.58513 15.71889 33957 ft 474 kts 302°
2026-05-07 12:23 48.62591 15.64125 33954 ft 474 kts 302°
2026-05-07 12:23 48.66692 15.56296 33954 ft 474 kts 302°
2026-05-07 12:24 48.70761 15.48504 33952 ft 474 kts 302°
2026-05-07 12:24 48.74825 15.40700 33958 ft 474 kts 302°
2026-05-07 12:25 48.78401 15.33808 33940 ft 474 kts 301°
2026-05-07 12:26 48.80942 15.28901 33931 ft 473 kts 301°
2026-05-07 12:26 48.85006 15.21031 33930 ft 473 kts 301°
2026-05-07 12:27 48.89059 15.13162 33911 ft 474 kts 302°
2026-05-07 12:27 48.93280 15.05451 33918 ft 474 kts 304°
2026-05-07 12:28 48.97535 14.97836 33913 ft 473 kts 304°
2026-05-07 12:28 49.01780 14.90198 33930 ft 472 kts 304°
2026-05-07 12:29 49.06020 14.82534 33931 ft 473 kts 304°
2026-05-07 12:29 49.10257 14.74847 33920 ft 474 kts 304°
2026-05-07 12:30 49.14481 14.67164 33918 ft 474 kts 304°
2026-05-07 12:30 49.18699 14.59471 33929 ft 474 kts 304°
2026-05-07 12:31 49.22918 14.51747 33920 ft 474 kts 305°
2026-05-07 12:31 49.27121 14.44031 33930 ft 474 kts 305°
2026-05-07 12:32 49.31334 14.36273 33929 ft 474 kts 305°
2026-05-07 12:32 49.35529 14.28527 33936 ft 474 kts 304°
2026-05-07 12:33 49.41802 14.16899 33922 ft 474 kts 305°
2026-05-07 12:33 49.45993 14.09104 33930 ft 475 kts 305°
2026-05-07 12:34 49.50202 14.01253 33934 ft 474 kts 305°
2026-05-07 12:34 49.54383 13.93430 33942 ft 474 kts 305°
2026-05-07 12:35 49.58539 13.85630 33935 ft 473 kts 305°
2026-05-07 12:35 49.62684 13.77828 33947 ft 473 kts 306°
2026-05-07 12:36 49.66841 13.69978 33941 ft 473 kts 306°
2026-05-07 12:36 49.70987 13.62126 33941 ft 473 kts 306°
2026-05-07 12:37 49.75129 13.54255 33941 ft 473 kts 306°
2026-05-07 12:37 49.79253 13.46400 33954 ft 474 kts 306°
2026-05-07 12:38 49.83407 13.38465 33950 ft 474 kts 306°
2026-05-07 12:38 49.87536 13.30549 33957 ft 473 kts 306°
2026-05-07 12:39 49.91657 13.22626 33958 ft 473 kts 306°
2026-05-07 12:39 49.95754 13.14724 33958 ft 474 kts 306°
2026-05-07 12:40 49.99865 13.06767 33957 ft 473 kts 306°
2026-05-07 12:40 50.03997 12.98747 33953 ft 473 kts 306°
2026-05-07 12:41 50.08093 12.90771 33960 ft 473 kts 306°
2026-05-07 12:41 50.12167 12.82807 33973 ft 472 kts 306°
2026-05-07 12:42 50.16186 12.74734 33968 ft 471 kts 303°
2026-05-07 12:42 50.19666 12.66189 33969 ft 469 kts 297°
2026-05-07 12:43 50.22727 12.57232 33979 ft 468 kts 296°
2026-05-07 12:43 50.25721 12.48296 33963 ft 468 kts 296°
2026-05-07 12:44 50.28733 12.39319 33965 ft 467 kts 295°
2026-05-07 12:44 50.30870 12.29839 33974 ft 464 kts 279°
2026-05-07 12:45 50.31196 12.19864 33973 ft 461 kts 263°
2026-05-07 12:45 50.29637 12.10229 33976 ft 460 kts 246°
2026-05-07 12:46 50.26447 12.01602 33985 ft 459 kts 237°
2026-05-07 12:46 50.23180 11.93071 33980 ft 459 kts 242°
2026-05-07 12:47 50.20731 11.83937 33987 ft 459 kts 252°
2026-05-07 12:47 50.19333 11.74232 33984 ft 460 kts 262°
2026-05-07 12:48 50.19022 11.64309 33987 ft 462 kts 270°
2026-05-07 12:48 50.19155 11.54310 33976 ft 463 kts 271°
2026-05-07 12:49 50.19294 11.44359 33982 ft 463 kts 271°
2026-05-07 12:49 50.19416 11.34350 33983 ft 463 kts 270°
2026-05-07 12:50 50.19524 11.24282 33989 ft 463 kts 270°
2026-05-07 12:50 50.19621 11.14311 33988 ft 462 kts 270°
2026-05-07 12:51 50.19708 11.04334 33995 ft 463 kts 270°
2026-05-07 12:51 50.19788 10.94316 33993 ft 464 kts 270°
2026-05-07 12:52 50.19759 10.84258 33991 ft 464 kts 269°
2026-05-07 12:52 50.19678 10.74202 34001 ft 464 kts 269°
2026-05-07 12:53 50.19594 10.64216 33993 ft 463 kts 269°
2026-05-07 12:53 50.19505 10.54172 34003 ft 463 kts 269°
2026-05-07 12:54 50.19407 10.44143 33992 ft 463 kts 270°
2026-05-07 12:54 50.19307 10.34175 34003 ft 462 kts 269°
2026-05-07 12:55 50.19197 10.24146 34009 ft 463 kts 269°
2026-05-07 12:55 50.19073 10.14125 34001 ft 463 kts 269°
2026-05-07 12:56 50.18941 10.04108 33996 ft 464 kts 269°
2026-05-07 12:56 50.18849 9.94080 33997 ft 463 kts 270°
2026-05-07 12:57 50.18771 9.84099 33996 ft 463 kts 270°
2026-05-07 12:57 50.18677 9.74104 34001 ft 463 kts 270°
2026-05-07 12:58 50.18568 9.64070 34006 ft 462 kts 270°
2026-05-07 12:58 50.18451 9.54103 34012 ft 462 kts 270°
2026-05-07 12:59 50.18331 9.44145 34008 ft 461 kts 271°
2026-05-07 12:59 50.18619 9.34228 34010 ft 460 kts 276°
2026-05-07 13:00 50.19588 9.24343 34011 ft 460 kts 282°
2026-05-07 13:00 50.21223 9.14728 34017 ft 460 kts 288°
2026-05-07 13:01 50.23349 9.05402 34027 ft 459 kts 294°
2026-05-07 13:01 50.26821 8.97070 34028 ft 460 kts 312°
2026-05-07 13:02 50.31757 8.90899 34024 ft 460 kts 330°
2026-05-07 13:02 50.37733 8.87428 34027 ft 462 kts 348°
2026-05-07 13:03 50.44085 8.86018 34022 ft 462 kts 352°
2026-05-07 13:03 50.50444 8.84765 34022 ft 462 kts 352°
2026-05-07 13:04 50.56773 8.83158 34021 ft 462 kts 346°
2026-05-07 13:04 50.62829 8.79955 34018 ft 461 kts 336°
2026-05-07 13:05 50.68436 8.75113 34019 ft 460 kts 326°
2026-05-07 13:05 50.73487 8.68882 34022 ft 460 kts 320°
2026-05-07 13:06 50.78324 8.62345 34017 ft 460 kts 319°
2026-05-07 13:06 50.83154 8.55809 34020 ft 461 kts 320°
2026-05-07 13:07 50.88027 8.49221 34014 ft 461 kts 320°
2026-05-07 13:07 50.92878 8.42649 34012 ft 460 kts 320°
2026-05-07 13:08 50.97749 8.36050 34010 ft 461 kts 321°
2026-05-07 13:08 51.02871 8.29974 34014 ft 462 kts 326°
2026-05-07 13:09 51.08339 8.24743 34014 ft 461 kts 330°
2026-05-07 13:09 51.13929 8.19787 34013 ft 461 kts 330°
2026-05-07 13:10 51.19506 8.14829 34006 ft 460 kts 330°
2026-05-07 13:10 51.25080 8.09843 34011 ft 459 kts 330°
2026-05-07 13:11 51.30618 8.04868 34014 ft 460 kts 330°
2026-05-07 13:11 51.36213 7.99823 34024 ft 460 kts 330°
2026-05-07 13:12 51.41747 7.94825 34026 ft 460 kts 330°
2026-05-07 13:12 51.47446 7.90172 34034 ft 460 kts 336°
2026-05-07 13:13 51.53435 7.86494 34039 ft 460 kts 342°
2026-05-07 13:13 51.59516 7.83523 34037 ft 459 kts 343°
2026-05-07 13:14 51.65625 7.80608 34042 ft 459 kts 343°
2026-05-07 13:14 51.71751 7.77659 34039 ft 460 kts 343°
2026-05-07 13:15 51.77812 7.74510 34037 ft 460 kts 337°
2026-05-07 13:15 51.83290 7.69362 34043 ft 460 kts 322°
2026-05-07 13:16 51.87796 7.62054 34044 ft 460 kts 307°
2026-05-07 13:16 51.91031 7.53190 34044 ft 460 kts 296°
2026-05-07 13:17 51.93760 7.43883 34040 ft 460 kts 296°
2026-05-07 13:17 51.96485 7.34530 34034 ft 460 kts 295°
2026-05-07 13:18 51.99228 7.25150 34031 ft 460 kts 295°
2026-05-07 13:18 52.01955 7.15806 34026 ft 459 kts 295°
2026-05-07 13:19 52.04678 7.06441 34022 ft 460 kts 295°
2026-05-07 13:19 52.07390 6.97080 34025 ft 459 kts 295°
2026-05-07 13:20 52.10057 6.87741 34025 ft 459 kts 295°
2026-05-07 13:20 52.12726 6.78305 34024 ft 459 kts 294°
2026-05-07 13:21 52.15067 6.68693 34022 ft 459 kts 290°
2026-05-07 13:21 52.17238 6.58956 34021 ft 459 kts 290°
2026-05-07 13:22 52.19383 6.49226 34027 ft 459 kts 289°
2026-05-07 13:22 52.21523 6.39470 34025 ft 459 kts 289°
2026-05-07 13:23 52.23656 6.29693 34025 ft 459 kts 289°
2026-05-07 13:23 52.25792 6.19898 34030 ft 459 kts 289°
2026-05-07 13:24 52.27918 6.10115 34029 ft 459 kts 289°
2026-05-07 13:24 52.30030 6.00332 34031 ft 459 kts 289°
2026-05-07 13:25 52.32145 5.90480 34025 ft 459 kts 289°
2026-05-07 13:25 52.34235 5.80680 34034 ft 459 kts 289°
2026-05-07 13:26 52.36322 5.70848 34043 ft 460 kts 288°
2026-05-07 13:26 52.38394 5.61028 34043 ft 460 kts 289°
2026-05-07 13:27 52.40482 5.51129 34048 ft 459 kts 289°
2026-05-07 13:27 52.42547 5.41303 34051 ft 458 kts 289°
2026-05-07 13:28 52.44601 5.31456 34056 ft 459 kts 288°
2026-05-07 13:28 52.46640 5.21615 34055 ft 462 kts 287°
2026-05-07 13:29 52.48692 5.11600 34061 ft 468 kts 289°
2026-05-07 13:29 52.50753 5.01548 34065 ft 464 kts 288°
2026-05-07 13:30 52.52959 4.91668 34063 ft 466 kts 292°
2026-05-07 13:30 52.55798 4.82113 34065 ft 470 kts 300°
2026-05-07 13:31 52.59281 4.73006 34064 ft 473 kts 306°
2026-05-07 13:31 52.63027 4.64171 34064 ft 474 kts 306°
2026-05-07 13:32 52.66782 4.55313 34070 ft 474 kts 306°
2026-05-07 13:32 52.70531 4.46408 34075 ft 474 kts 306°
2026-05-07 13:33 52.74237 4.37479 34080 ft 474 kts 304°
2026-05-07 13:33 52.77594 4.28134 34080 ft 475 kts 300°
2026-05-07 13:34 52.82404 4.13890 34080 ft 475 kts 300°
2026-05-07 13:35 52.85617 4.04337 34081 ft 475 kts 300°
2026-05-07 13:35 52.88813 3.94812 34084 ft 476 kts 300°
2026-05-07 13:36 52.91998 3.85285 34090 ft 476 kts 300°
2026-05-07 13:36 52.95200 3.75659 34084 ft 477 kts 300°
2026-05-07 13:37 52.98395 3.66025 34088 ft 478 kts 300°
2026-05-07 13:37 53.01571 3.56431 34090 ft 478 kts 300°
2026-05-07 13:38 53.04762 3.46744 34093 ft 478 kts 300°
2026-05-07 13:38 53.07642 3.36874 34094 ft 479 kts 294°
2026-05-07 13:39 53.09793 3.26399 34093 ft 481 kts 286°
2026-05-07 13:39 53.11143 3.15572 34092 ft 482 kts 278°
2026-05-07 13:40 53.11938 3.04453 34094 ft 483 kts 277°
2026-05-07 13:40 53.12675 2.93399 34090 ft 483 kts 277°
2026-05-07 13:41 53.13413 2.82350 34087 ft 483 kts 277°
2026-05-07 13:41 53.14151 2.71232 34087 ft 483 kts 277°
2026-05-07 13:42 53.14878 2.60167 34085 ft 483 kts 277°
2026-05-07 13:42 53.15597 2.49082 34085 ft 483 kts 277°
2026-05-07 13:43 53.16302 2.38029 34085 ft 483 kts 277°
2026-05-07 13:43 53.17003 2.26897 34086 ft 483 kts 276°
2026-05-07 13:44 53.17691 2.15788 34086 ft 484 kts 276°
2026-05-07 13:44 53.18369 2.04686 34087 ft 484 kts 276°
2026-05-07 13:45 53.19037 1.93548 34085 ft 485 kts 276°
2026-05-07 13:45 53.19691 1.82472 34087 ft 483 kts 276°
2026-05-07 13:46 53.20338 1.71353 34087 ft 484 kts 276°
2026-05-07 13:46 53.20976 1.60205 34083 ft 484 kts 276°
2026-05-07 13:47 53.21600 1.49097 34083 ft 484 kts 276°
2026-05-07 13:47 53.22217 1.37945 34081 ft 484 kts 276°
2026-05-07 13:48 53.22823 1.26817 34082 ft 483 kts 275°
2026-05-07 13:48 53.23416 1.15677 34077 ft 483 kts 275°
2026-05-07 13:49 53.24000 1.04553 34078 ft 483 kts 275°
2026-05-07 13:49 53.24576 0.93394 34075 ft 484 kts 275°
2026-05-07 13:50 53.25137 0.82291 34069 ft 483 kts 275°
2026-05-07 13:50 53.25692 0.71068 34058 ft 483 kts 274°
2026-05-07 13:51 53.26231 0.59948 34065 ft 482 kts 275°
2026-05-07 13:51 53.26761 0.48814 34056 ft 482 kts 274°
2026-05-07 13:52 53.27277 0.37701 34056 ft 482 kts 274°
2026-05-07 13:52 53.27784 0.26553 34053 ft 482 kts 274°
2026-05-07 13:53 53.28369 0.15478 34038 ft 483 kts 277°
2026-05-07 13:53 53.29639 0.04487 34036 ft 483 kts 284°
2026-05-07 13:54 53.31728 -0.06265 34046 ft 492 kts 291°
2026-05-07 13:54 53.34549 -0.16596 34050 ft 494 kts 296°
2026-05-07 13:55 53.37583 -0.26868 34050 ft 494 kts 296°
2026-05-07 13:55 53.40602 -0.37175 34052 ft 494 kts 296°
2026-05-07 13:56 53.43580 -0.47478 34050 ft 494 kts 296°
2026-05-07 13:56 53.46547 -0.57819 34048 ft 494 kts 296°
2026-05-07 13:57 53.49505 -0.68175 34043 ft 494 kts 295°
2026-05-07 13:57 53.52444 -0.78538 34040 ft 494 kts 295°
2026-05-07 13:58 53.55394 -0.88961 34035 ft 493 kts 295°
2026-05-07 13:58 53.57984 -0.99546 34025 ft 492 kts 286°
2026-05-07 13:59 53.59346 -1.10739 34025 ft 491 kts 275°
2026-05-07 13:59 53.59418 -1.22191 34023 ft 489 kts 264°
2026-05-07 14:00 53.58443 -1.33412 34021 ft 488 kts 259°
2026-05-07 14:00 53.57285 -1.44598 34018 ft 488 kts 259°
2026-05-07 14:01 53.56152 -1.55777 34015 ft 487 kts 259°
2026-05-07 14:01 53.55022 -1.66992 34012 ft 487 kts 258°
2026-05-07 14:02 53.53910 -1.78139 34005 ft 488 kts 260°
2026-05-07 14:02 53.53290 -1.89515 34002 ft 489 kts 266°
2026-05-07 14:03 53.53397 -2.00864 33997 ft 490 kts 272°
2026-05-07 14:03 53.54015 -2.12261 33998 ft 490 kts 274°
2026-05-07 14:04 53.54661 -2.23595 34000 ft 490 kts 274°
2026-05-07 14:04 53.55285 -2.34925 34000 ft 490 kts 274°
2026-05-07 14:05 53.55896 -2.46306 33999 ft 490 kts 274°
2026-05-07 14:05 53.56492 -2.57691 34005 ft 490 kts 274°
2026-05-07 14:06 53.57072 -2.69023 34005 ft 489 kts 273°
2026-05-07 14:06 53.57649 -2.80370 34004 ft 488 kts 273°
2026-05-07 14:07 53.58214 -2.91758 34004 ft 493 kts 272°
2026-05-07 14:07 53.58771 -3.03279 34001 ft 495 kts 272°
2026-05-07 14:08 53.59314 -3.14745 33999 ft 494 kts 272°
2026-05-07 14:08 53.59852 -3.26221 33999 ft 494 kts 272°
2026-05-07 14:09 53.60380 -3.37755 33998 ft 494 kts 272°
2026-05-07 14:09 53.60886 -3.49208 33995 ft 493 kts 272°
2026-05-07 14:10 53.61377 -3.60656 33992 ft 493 kts 272°
2026-05-07 14:10 53.61866 -3.72134 33988 ft 493 kts 271°
2026-05-07 14:11 53.62342 -3.83571 33985 ft 492 kts 271°
2026-05-07 14:11 53.62804 -3.95056 33983 ft 493 kts 271°
2026-05-07 14:12 53.63262 -4.06585 33983 ft 492 kts 271°
2026-05-07 14:12 53.63706 -4.18002 33978 ft 492 kts 271°
2026-05-07 14:13 53.64136 -4.29438 33976 ft 491 kts 271°
2026-05-07 14:13 53.64557 -4.40864 33972 ft 490 kts 271°
2026-05-07 14:14 53.64972 -4.52317 33969 ft 490 kts 271°
2026-05-07 14:14 53.65373 -4.63744 33969 ft 490 kts 271°
2026-05-07 14:15 53.65757 -4.75172 33968 ft 490 kts 270°
2026-05-07 14:15 53.66129 -4.86568 33972 ft 489 kts 270°
2026-05-07 14:16 53.66503 -4.97949 33972 ft 489 kts 270°
2026-05-07 14:16 53.66859 -5.09382 33966 ft 488 kts 270°
2026-05-07 14:17 53.67204 -5.20707 33963 ft 488 kts 270°
2026-05-07 14:17 53.67535 -5.32146 33959 ft 487 kts 270°
2026-05-07 14:18 53.67847 -5.43512 33954 ft 487 kts 270°
2026-05-07 14:18 53.68272 -5.53307 33951 ft 488 kts 274°
2026-05-07 14:19 53.69097 -5.64660 33947 ft 488 kts 274°
2026-05-07 14:19 53.69922 -5.75929 33943 ft 487 kts 274°
2026-05-07 14:20 53.70729 -5.87208 33937 ft 487 kts 274°
2026-05-07 14:20 53.71525 -5.98537 33937 ft 487 kts 274°
2026-05-07 14:21 53.72308 -6.09861 33931 ft 487 kts 274°
2026-05-07 14:21 53.73081 -6.21197 33929 ft 487 kts 274°
2026-05-07 14:22 53.73839 -6.32475 33922 ft 486 kts 273°
2026-05-07 14:22 53.74585 -6.43739 33916 ft 485 kts 273°
2026-05-07 14:23 53.75319 -6.55002 33913 ft 484 kts 274°
2026-05-07 14:23 53.76040 -6.66240 33911 ft 483 kts 272°
2026-05-07 14:24 53.76754 -6.77501 33905 ft 482 kts 272°
2026-05-07 14:24 53.77455 -6.88736 33902 ft 482 kts 273°
2026-05-07 14:25 53.78143 -6.99953 33899 ft 481 kts 272°
2026-05-07 14:25 53.78819 -7.11124 33899 ft 480 kts 273°
2026-05-07 14:26 53.79485 -7.22305 33898 ft 480 kts 273°
2026-05-07 14:26 53.80141 -7.33517 33898 ft 480 kts 273°
2026-05-07 14:27 53.80787 -7.44726 33898 ft 479 kts 273°
2026-05-07 14:27 53.81418 -7.55864 33899 ft 479 kts 273°
2026-05-07 14:28 53.82042 -7.67070 33899 ft 478 kts 272°
2026-05-07 14:28 53.82652 -7.78194 33900 ft 478 kts 272°
2026-05-07 14:29 53.83254 -7.89363 33900 ft 478 kts 272°
2026-05-07 14:29 53.83846 -8.00556 33898 ft 478 kts 272°
2026-05-07 14:30 53.84426 -8.11721 33901 ft 477 kts 272°
2026-05-07 14:30 53.84995 -8.22870 33900 ft 477 kts 272°
2026-05-07 14:31 53.85550 -8.33955 33901 ft 476 kts 272°
2026-05-07 14:31 53.86100 -8.45144 33904 ft 476 kts 272°
2026-05-07 14:32 53.86636 -8.56251 33902 ft 475 kts 272°
2026-05-07 14:32 53.87158 -8.67315 33900 ft 474 kts 271°
2026-05-07 14:33 53.87672 -8.78420 33900 ft 474 kts 271°
2026-05-07 14:33 53.88176 -8.89504 33900 ft 473 kts 271°
2026-05-07 14:34 53.88666 -9.00539 33907 ft 472 kts 271°
2026-05-07 14:34 53.89147 -9.11592 33910 ft 472 kts 272°
2026-05-07 14:35 53.89620 -9.22665 33910 ft 472 kts 271°
2026-05-07 14:35 53.90080 -9.33686 33909 ft 471 kts 271°
2026-05-07 14:36 53.90529 -9.44697 33906 ft 470 kts 271°
2026-05-07 14:36 53.90969 -9.55725 33901 ft 469 kts 271°
2026-05-07 14:37 53.91394 -9.66678 33900 ft 469 kts 270°
2026-05-07 14:37 53.92017 -9.83177 33907 ft 469 kts 270°
2026-05-07 14:38 53.92417 -9.94125 33909 ft 468 kts 270°
2026-05-07 14:38 53.92809 -10.05099 33902 ft 466 kts 270°
2026-05-07 14:39 53.93190 -10.16047 33906 ft 466 kts 270°
2026-05-07 14:39 53.93560 -10.26960 33904 ft 466 kts 270°
2026-05-07 14:40 53.93921 -10.37893 33906 ft 466 kts 270°
2026-05-07 14:40 53.94271 -10.48839 33906 ft 466 kts 270°
2026-05-07 14:41 53.94610 -10.59738 33906 ft 466 kts 270°
2026-05-07 14:41 53.94940 -10.70699 33908 ft 465 kts 269°
2026-05-07 14:42 53.95262 -10.81630 33908 ft 464 kts 269°
2026-05-07 14:42 53.95571 -10.92486 33910 ft 464 kts 269°
2026-05-07 14:43 53.95870 -11.03388 33900 ft 464 kts 269°
2026-05-07 14:43 53.96160 -11.14309 33910 ft 465 kts 269°
2026-05-07 14:44 53.96441 -11.25211 33910 ft 463 kts 269°
2026-05-07 14:44 53.96708 -11.36073 33908 ft 463 kts 269°
2026-05-07 14:45 53.96966 -11.46954 33915 ft 462 kts 269°
2026-05-07 14:45 53.97216 -11.57835 33914 ft 461 kts 269°
2026-05-07 14:46 53.97454 -11.68618 33907 ft 461 kts 268°
2026-05-07 14:46 53.97683 -11.79500 33900 ft 461 kts 268°
2026-05-07 14:47 53.97903 -11.90312 33897 ft 461 kts 268°
2026-05-07 14:47 53.98113 -12.01145 33901 ft 460 kts 268°
2026-05-07 14:48 53.98312 -12.11936 33902 ft 459 kts 268°
2026-05-07 14:48 53.98500 -12.22703 33906 ft 457 kts 268°
2026-05-07 14:49 53.98678 -12.33518 33908 ft 458 kts 268°
2026-05-07 14:49 53.98849 -12.44265 33913 ft 457 kts 268°
2026-05-07 14:50 53.99008 -12.55026 33909 ft 458 kts 268°
2026-05-07 14:50 53.99159 -12.65813 33916 ft 458 kts 267°
2026-05-07 14:51 53.99299 -12.76582 33911 ft 458 kts 267°
2026-05-07 14:51 53.99430 -12.87329 33917 ft 457 kts 267°
2026-05-07 14:52 53.99550 -12.98095 33922 ft 456 kts 267°
2026-05-07 14:52 53.99663 -13.08830 33910 ft 455 kts 267°
2026-05-07 14:53 53.99764 -13.19506 33902 ft 454 kts 267°
2026-05-07 14:53 53.99855 -13.30211 33910 ft 454 kts 267°
2026-05-07 14:54 53.99938 -13.40945 33900 ft 455 kts 267°
2026-05-07 14:54 54.00010 -13.51665 33931 ft 455 kts 267°
2026-05-07 14:55 54.00074 -13.62408 33926 ft 455 kts 267°
2026-05-07 14:55 54.00127 -13.73080 33915 ft 454 kts 266°
2026-05-07 14:56 54.00173 -13.83780 33927 ft 453 kts 266°
2026-05-07 14:56 54.00209 -13.94430 33910 ft 452 kts 266°
2026-05-07 14:57 54.00231 -14.05028 33910 ft 452 kts 266°
2026-05-07 14:57 54.00246 -14.15682 33921 ft 452 kts 267°
2026-05-07 14:58 54.00252 -14.26345 33922 ft 452 kts 267°
2026-05-07 14:58 54.00248 -14.36986 33932 ft 451 kts 267°
2026-05-07 14:59 54.00236 -14.47549 33926 ft 451 kts 267°
2026-05-07 14:59 54.00212 -14.58210 33940 ft 453 kts 267°
2026-05-07 15:00 54.00196 -14.63565 34083 ft 453 kts 268°
2026-05-07 15:00 54.00176 -14.68831 34287 ft 451 kts 267°
2026-05-07 15:00 54.00156 -14.74147 34471 ft 451 kts 267°
2026-05-07 15:00 54.00132 -14.79493 34589 ft 451 kts 267°
2026-05-07 15:01 54.00106 -14.84734 34709 ft 451 kts 267°
2026-05-07 15:01 54.00079 -14.90069 34871 ft 451 kts 267°
2026-05-07 15:01 54.00049 -14.95373 35006 ft 450 kts 268°
2026-05-07 15:01 54.00048 -15.00630 35147 ft 451 kts 269°
2026-05-07 15:02 54.00151 -15.05975 35288 ft 451 kts 270°
2026-05-07 15:02 54.00262 -15.11300 35415 ft 451 kts 270°
2026-05-07 15:02 54.00370 -15.16563 35547 ft 452 kts 270°
2026-05-07 15:02 54.00475 -15.21880 35689 ft 452 kts 270°
2026-05-07 15:03 54.00578 -15.27247 35826 ft 452 kts 270°
2026-05-07 15:03 54.00677 -15.32545 35972 ft 452 kts 270°
2026-05-07 15:03 54.00773 -15.37830 36107 ft 452 kts 270°
2026-05-07 15:03 54.00867 -15.43193 36222 ft 452 kts 270°
2026-05-07 15:04 54.00957 -15.48529 36331 ft 452 kts 270°
2026-05-07 15:04 54.01045 -15.53847 36455 ft 453 kts 270°
2026-05-07 15:04 54.01214 -15.64491 36656 ft 454 kts 270°
2026-05-07 15:05 54.01295 -15.69868 36772 ft 454 kts 270°
2026-05-07 15:05 54.01373 -15.75183 36876 ft 454 kts 270°
2026-05-07 15:05 54.01525 -15.85916 36964 ft 456 kts 270°
2026-05-07 15:06 54.01666 -15.96597 36971 ft 456 kts 270°
2026-05-07 15:06 54.01799 -16.07327 36979 ft 455 kts 270°
2026-05-07 15:07 54.01921 -16.18078 36984 ft 455 kts 270°
2026-05-07 15:07 54.02033 -16.28744 36984 ft 456 kts 270°
2026-05-07 15:08 54.02136 -16.39527 36981 ft 457 kts 270°
2026-05-07 15:08 54.02230 -16.50319 36974 ft 457 kts 270°
2026-05-07 15:09 54.02314 -16.61032 36972 ft 457 kts 270°
2026-05-07 15:09 54.02388 -16.71802 36983 ft 457 kts 270°
2026-05-07 15:10 54.02454 -16.82542 36984 ft 458 kts 270°
2026-05-07 15:10 54.02510 -16.93373 36984 ft 458 kts 270°
2026-05-07 15:11 54.02556 -17.04137 36985 ft 459 kts 269°
2026-05-07 15:11 54.02593 -17.14945 36971 ft 459 kts 270°
2026-05-07 15:12 54.02618 -17.25757 36977 ft 460 kts 270°
2026-05-07 15:12 54.02634 -17.36605 36979 ft 460 kts 270°
2026-05-07 15:13 54.02642 -17.47379 36980 ft 459 kts 270°
2026-05-07 15:13 54.02640 -17.58204 36991 ft 459 kts 270°
2026-05-07 15:14 54.02627 -17.69034 37001 ft 460 kts 269°
2026-05-07 15:14 54.02604 -17.79872 36993 ft 461 kts 269°
2026-05-07 15:15 54.02572 -17.90763 36997 ft 462 kts 269°
2026-05-07 15:15 54.02530 -18.01591 36995 ft 462 kts 269°
2026-05-07 15:16 54.02479 -18.12515 36996 ft 463 kts 269°
2026-05-07 15:16 54.02418 -18.23432 37002 ft 463 kts 269°
2026-05-07 15:17 54.02347 -18.34290 37003 ft 463 kts 269°
2026-05-07 15:17 54.02265 -18.45161 37002 ft 463 kts 270°
2026-05-07 15:18 54.02174 -18.56066 37004 ft 462 kts 270°
2026-05-07 15:18 54.02072 -18.66955 37009 ft 463 kts 269°
2026-05-07 15:19 54.01962 -18.77877 37010 ft 463 kts 269°
2026-05-07 15:19 54.01841 -18.88776 37007 ft 464 kts 269°
2026-05-07 15:20 54.01709 -18.99700 37018 ft 464 kts 269°
2026-05-07 15:20 54.01568 -19.10604 37020 ft 464 kts 269°
2026-05-07 15:21 54.01417 -19.21573 37025 ft 464 kts 269°
2026-05-07 15:21 54.01256 -19.32427 37029 ft 464 kts 269°
2026-05-07 15:22 54.01084 -19.43399 37029 ft 464 kts 269°
2026-05-07 15:22 54.00903 -19.54284 37035 ft 465 kts 269°
2026-05-07 15:23 54.00709 -19.65207 37034 ft 465 kts 268°
2026-05-07 15:23 54.00504 -19.76198 37036 ft 465 kts 269°
2026-05-07 15:24 54.00289 -19.87098 37038 ft 465 kts 269°
2026-05-07 15:24 54.00058 -19.98070 37041 ft 465 kts 268°
2026-05-07 15:25 53.99530 -20.08921 37044 ft 466 kts 265°
2026-05-07 15:25 53.98907 -20.19850 37044 ft 466 kts 265°
2026-05-07 15:26 53.98268 -20.30742 37046 ft 466 kts 265°
2026-05-07 15:26 53.97619 -20.41646 37052 ft 466 kts 265°
2026-05-07 15:27 53.96957 -20.52565 37053 ft 466 kts 265°
2026-05-07 15:27 53.96286 -20.63469 37056 ft 466 kts 266°
2026-05-07 15:28 53.95611 -20.74303 37061 ft 466 kts 265°
2026-05-07 15:28 53.94918 -20.85259 37063 ft 468 kts 265°
2026-05-07 15:29 53.94217 -20.96180 37065 ft 468 kts 265°
2026-05-07 15:29 53.93506 -21.07087 37069 ft 468 kts 265°
2026-05-07 15:30 53.92784 -21.17986 37068 ft 468 kts 265°
2026-05-07 15:30 53.92049 -21.28941 37070 ft 468 kts 265°
2026-05-07 15:31 53.91312 -21.39794 37071 ft 468 kts 265°
2026-05-07 15:31 53.90556 -21.50782 37075 ft 468 kts 265°
2026-05-07 15:32 53.89795 -21.61678 37077 ft 469 kts 265°
2026-05-07 15:32 53.89021 -21.72610 37081 ft 469 kts 264°
2026-05-07 15:33 53.88239 -21.83522 37080 ft 470 kts 264°
2026-05-07 15:33 53.87444 -21.94468 37081 ft 470 kts 264°
2026-05-07 15:34 53.86644 -22.05354 37083 ft 470 kts 264°
2026-05-07 15:34 53.85826 -22.16328 37082 ft 470 kts 265°
2026-05-07 15:35 53.85000 -22.27252 37083 ft 470 kts 265°
2026-05-07 15:35 53.84166 -22.38176 37088 ft 470 kts 265°
2026-05-07 15:36 53.83321 -22.49128 37091 ft 469 kts 265°
2026-05-07 15:36 53.82472 -22.59967 37090 ft 470 kts 265°
2026-05-07 15:37 53.81604 -22.70926 37093 ft 470 kts 264°
2026-05-07 15:37 53.80728 -22.81853 37100 ft 471 kts 264°
2026-05-07 15:38 53.79841 -22.92797 37106 ft 471 kts 264°
2026-05-07 15:38 53.78947 -23.03709 37111 ft 471 kts 264°
2026-05-07 15:39 53.78047 -23.14546 37118 ft 471 kts 264°
2026-05-07 15:39 53.77128 -23.25494 37117 ft 471 kts 264°
2026-05-07 15:40 53.76206 -23.36355 37117 ft 471 kts 265°
2026-05-07 15:40 53.75268 -23.47287 37113 ft 470 kts 265°
2026-05-07 15:41 53.74324 -23.58181 37113 ft 471 kts 265°
2026-05-07 15:41 53.73368 -23.69079 37115 ft 471 kts 264°
2026-05-07 15:42 53.72408 -23.79899 37113 ft 471 kts 264°
2026-05-07 15:42 53.71427 -23.90853 37116 ft 471 kts 264°
2026-05-07 15:43 53.70443 -24.01730 37117 ft 472 kts 264°
2026-05-07 15:43 53.69445 -24.12647 37124 ft 473 kts 264°
2026-05-07 15:44 53.68436 -24.23552 37119 ft 472 kts 264°
2026-05-07 15:44 53.67420 -24.34427 37120 ft 471 kts 264°
2026-05-07 15:45 53.66394 -24.45299 37122 ft 471 kts 264°
2026-05-07 15:45 53.65361 -24.56143 37128 ft 471 kts 264°
2026-05-07 15:46 53.63793 -24.72402 37136 ft 472 kts 264°
2026-05-07 15:47 53.62734 -24.83236 37137 ft 472 kts 264°
2026-05-07 15:47 53.61662 -24.94115 37142 ft 472 kts 264°
2026-05-07 15:48 53.60582 -25.04954 37144 ft 472 kts 264°
2026-05-07 15:48 53.59485 -25.15862 37150 ft 473 kts 264°
2026-05-07 15:49 53.58387 -25.26681 37141 ft 473 kts 264°
2026-05-07 15:49 53.57277 -25.37521 37141 ft 472 kts 264°
2026-05-07 15:50 53.56153 -25.48385 37145 ft 472 kts 264°
2026-05-07 15:50 53.55025 -25.59193 37147 ft 471 kts 264°
2026-05-07 15:51 53.53884 -25.70017 37150 ft 472 kts 264°
2026-05-07 15:51 53.52734 -25.80846 37144 ft 472 kts 264°
2026-05-07 15:52 53.51580 -25.91618 37143 ft 472 kts 264°
2026-05-07 15:52 53.50411 -26.02419 37147 ft 472 kts 264°
2026-05-07 15:53 53.49232 -26.13210 37148 ft 472 kts 264°
2026-05-07 15:53 53.48045 -26.23986 37159 ft 471 kts 264°
2026-05-07 15:54 53.46852 -26.34724 37157 ft 471 kts 264°
2026-05-07 15:54 53.45645 -26.45491 37164 ft 471 kts 264°
2026-05-07 15:55 53.44425 -26.56298 37160 ft 471 kts 264°
2026-05-07 15:55 53.43208 -26.66965 37168 ft 471 kts 264°
2026-05-07 15:56 53.41974 -26.77705 37172 ft 471 kts 264°
2026-05-07 15:56 53.40724 -26.88487 37175 ft 471 kts 264°
2026-05-07 15:57 53.39471 -26.99205 37177 ft 470 kts 264°
2026-05-07 15:57 53.38216 -27.09861 37175 ft 471 kts 264°
2026-05-07 15:58 53.36942 -27.20592 37168 ft 470 kts 264°
2026-05-07 15:58 53.35657 -27.31302 37180 ft 471 kts 264°
2026-05-07 15:59 53.34370 -27.41972 37179 ft 470 kts 264°
2026-05-07 15:59 53.33080 -27.52574 37184 ft 469 kts 265°
2026-05-07 16:00 53.31772 -27.63238 37185 ft 469 kts 264°
2026-05-07 16:00 53.30460 -27.73858 37191 ft 469 kts 264°
2026-05-07 16:01 53.29136 -27.84467 37187 ft 468 kts 264°
2026-05-07 16:01 53.27802 -27.95101 37205 ft 468 kts 264°
2026-05-07 16:02 53.26458 -28.05725 37193 ft 468 kts 264°
2026-05-07 16:02 53.25112 -28.16281 37205 ft 469 kts 264°
2026-05-07 16:03 53.23753 -28.26849 37203 ft 468 kts 264°
2026-05-07 16:03 53.22385 -28.37409 37211 ft 467 kts 265°
2026-05-07 16:04 53.21011 -28.47958 37206 ft 467 kts 265°
2026-05-07 16:04 53.19629 -28.58481 37207 ft 465 kts 265°
2026-05-07 16:05 53.18246 -28.68925 37207 ft 466 kts 264°
2026-05-07 16:05 53.16850 -28.79406 37211 ft 465 kts 264°
2026-05-07 16:06 53.15443 -28.89875 37201 ft 466 kts 264°
2026-05-07 16:06 53.14027 -29.00355 37277 ft 467 kts 264°
2026-05-07 16:07 53.12597 -29.10862 37143 ft 467 kts 264°
2026-05-07 16:07 53.11881 -29.16090 37332 ft 467 kts 264°
2026-05-07 16:07 53.11153 -29.21381 37311 ft 466 kts 264°
2026-05-07 16:07 53.10439 -29.26554 37166 ft 465 kts 264°
2026-05-07 16:08 53.09713 -29.31788 37202 ft 465 kts 265°
2026-05-07 16:08 53.08258 -29.42254 37212 ft 465 kts 264°
2026-05-07 16:09 53.06798 -29.52664 37221 ft 464 kts 265°
2026-05-07 16:09 53.05336 -29.63010 37239 ft 464 kts 265°
2026-05-07 16:10 53.03861 -29.73370 37239 ft 463 kts 264°
2026-05-07 16:10 53.02373 -29.83760 37238 ft 464 kts 264°
2026-05-07 16:11 53.00873 -29.94128 37249 ft 463 kts 264°
2026-05-07 16:11 52.99570 -30.04451 37250 ft 457 kts 268°
2026-05-07 16:12 52.98499 -30.14785 37269 ft 456 kts 268°
2026-05-07 16:12 52.97417 -30.25121 37242 ft 456 kts 268°
2026-05-07 16:13 52.96320 -30.35442 37251 ft 455 kts 268°
2026-05-07 16:13 52.95223 -30.45673 37260 ft 453 kts 268°
2026-05-07 16:14 52.94115 -30.55926 37260 ft 453 kts 268°
2026-05-07 16:14 52.93000 -30.66136 37269 ft 453 kts 268°
2026-05-07 16:15 52.91875 -30.76369 37260 ft 453 kts 268°
2026-05-07 16:15 52.90739 -30.86597 37247 ft 453 kts 268°
2026-05-07 16:16 52.89597 -30.96817 37248 ft 452 kts 268°
2026-05-07 16:16 52.88448 -31.06991 37238 ft 453 kts 268°
2026-05-07 16:17 52.87291 -31.17184 37244 ft 452 kts 268°
2026-05-07 16:17 52.86120 -31.27388 37245 ft 451 kts 268°
2026-05-07 16:18 52.84946 -31.37560 37257 ft 452 kts 268°
2026-05-07 16:18 52.83766 -31.47697 37253 ft 452 kts 268°
2026-05-07 16:19 52.82578 -31.57830 37259 ft 452 kts 268°
2026-05-07 16:19 52.81374 -31.68009 37268 ft 455 kts 267°
2026-05-07 16:20 52.80158 -31.78214 37259 ft 455 kts 267°
2026-05-07 16:20 52.78926 -31.88448 37265 ft 456 kts 267°
2026-05-07 16:21 52.77686 -31.98692 37260 ft 455 kts 267°
2026-05-07 16:21 52.76445 -32.08866 37256 ft 455 kts 267°
2026-05-07 16:22 52.75183 -32.19122 37235 ft 456 kts 267°
2026-05-07 16:22 52.73924 -32.29281 37247 ft 457 kts 267°
2026-05-07 16:23 52.72648 -32.39509 37270 ft 457 kts 267°
2026-05-07 16:23 52.71363 -32.49742 37275 ft 457 kts 267°
2026-05-07 16:24 52.70061 -32.60018 37275 ft 458 kts 267°
2026-05-07 16:24 52.68758 -32.70237 37270 ft 457 kts 266°
2026-05-07 16:25 52.67445 -32.80441 37272 ft 458 kts 266°
2026-05-07 16:25 52.66127 -32.90624 37276 ft 458 kts 266°
2026-05-07 16:26 52.64794 -33.00854 37280 ft 457 kts 267°
2026-05-07 16:26 52.63452 -33.11085 37293 ft 457 kts 266°
2026-05-07 16:27 52.62107 -33.21241 37295 ft 458 kts 266°
2026-05-07 16:27 52.60751 -33.31414 37290 ft 458 kts 267°
2026-05-07 16:28 52.59381 -33.41616 37297 ft 456 kts 267°
2026-05-07 16:28 52.58019 -33.51718 37285 ft 457 kts 267°
2026-05-07 16:29 52.56632 -33.61912 37277 ft 456 kts 267°
2026-05-07 16:29 52.55247 -33.72022 37275 ft 456 kts 266°
2026-05-07 16:30 52.53870 -33.82003 37274 ft 455 kts 266°
2026-05-07 16:30 52.52466 -33.92111 37276 ft 456 kts 266°
2026-05-07 16:31 52.51057 -34.02200 37279 ft 455 kts 266°
2026-05-07 16:31 52.49644 -34.12234 37286 ft 455 kts 266°
2026-05-07 16:32 52.48214 -34.22343 37277 ft 456 kts 266°
2026-05-07 16:32 52.46784 -34.32366 37288 ft 455 kts 266°
2026-05-07 16:33 52.45339 -34.42427 37293 ft 454 kts 266°
2026-05-07 16:33 52.43893 -34.52434 37292 ft 454 kts 266°
2026-05-07 16:34 52.42437 -34.62442 37289 ft 454 kts 266°
2026-05-07 16:34 52.40967 -34.72495 37309 ft 455 kts 265°
2026-05-07 16:35 52.39494 -34.82499 37291 ft 455 kts 265°
2026-05-07 16:35 52.38007 -34.92518 37286 ft 455 kts 265°
2026-05-07 16:36 52.36511 -35.02549 37289 ft 453 kts 265°
2026-05-07 16:36 52.35015 -35.12511 37283 ft 454 kts 265°
2026-05-07 16:37 52.33517 -35.22430 37276 ft 453 kts 265°
2026-05-07 16:37 52.32000 -35.32407 37280 ft 454 kts 265°
2026-05-07 16:38 52.30472 -35.42405 37281 ft 453 kts 265°
2026-05-07 16:38 52.28937 -35.52374 37285 ft 454 kts 265°
2026-05-07 16:39 52.27386 -35.62387 37283 ft 454 kts 265°
2026-05-07 16:39 52.25841 -35.72300 37279 ft 455 kts 264°
2026-05-07 16:39 52.25063 -35.77242 37279 ft 443 kts 264°
2026-05-07 16:40 52.24303 -35.82041 37284 ft 438 kts 264°
2026-05-07 16:40 52.22791 -35.91648 37274 ft 438 kts 264°
2026-05-07 16:41 52.21276 -36.01222 37277 ft 437 kts 264°
2026-05-07 16:41 52.19752 -36.10773 37282 ft 437 kts 264°
2026-05-07 16:42 52.18229 -36.20294 37288 ft 438 kts 264°
2026-05-07 16:42 52.16682 -36.29855 37288 ft 438 kts 264°
2026-05-07 16:43 52.15128 -36.39407 37290 ft 438 kts 264°
2026-05-07 16:43 52.13565 -36.48975 37285 ft 438 kts 264°
2026-05-07 16:44 52.12004 -36.58488 37289 ft 438 kts 264°
2026-05-07 16:44 52.10427 -36.68039 37285 ft 438 kts 263°
2026-05-07 16:45 52.08844 -36.77571 37280 ft 439 kts 263°
2026-05-07 16:45 52.07253 -36.87102 37282 ft 438 kts 263°
2026-05-07 16:46 52.05658 -36.96605 37287 ft 439 kts 263°
2026-05-07 16:46 52.04054 -37.06120 37290 ft 439 kts 263°
2026-05-07 16:47 52.02437 -37.15645 37290 ft 439 kts 262°
2026-05-07 16:47 52.00810 -37.25180 37289 ft 439 kts 262°
2026-05-07 16:48 51.99190 -37.34628 37290 ft 440 kts 262°
2026-05-07 16:48 51.97541 -37.44184 37291 ft 440 kts 262°
2026-05-07 16:49 51.95900 -37.53648 37287 ft 439 kts 262°
2026-05-07 16:49 51.94241 -37.63163 37291 ft 439 kts 262°
2026-05-07 16:50 51.92586 -37.72612 37287 ft 440 kts 261°
2026-05-07 16:50 51.90904 -37.82157 37623 ft 441 kts 261°
2026-05-07 16:50 51.90072 -37.86852 37394 ft 439 kts 261°
2026-05-07 16:51 51.89222 -37.91644 37319 ft 439 kts 261°
2026-05-07 16:51 51.87549 -38.01045 37296 ft 439 kts 261°
2026-05-07 16:52 51.85858 -38.10487 37294 ft 439 kts 261°
2026-05-07 16:52 51.84151 -38.19973 37292 ft 439 kts 261°
2026-05-07 16:53 51.82457 -38.29345 37293 ft 439 kts 261°
2026-05-07 16:53 51.80736 -38.38805 37292 ft 439 kts 261°
2026-05-07 16:54 51.79012 -38.48239 37293 ft 439 kts 261°
2026-05-07 16:54 51.77285 -38.57642 37292 ft 440 kts 261°
2026-05-07 16:55 51.75541 -38.67084 37294 ft 440 kts 260°
2026-05-07 16:55 51.73788 -38.76528 37293 ft 441 kts 260°
2026-05-07 16:56 51.72030 -38.85957 37291 ft 442 kts 259°
2026-05-07 16:56 51.69367 -39.00133 37287 ft 442 kts 259°
2026-05-07 16:57 51.67583 -39.09581 37288 ft 442 kts 259°
2026-05-07 16:57 51.65792 -39.19006 37285 ft 443 kts 259°
2026-05-07 16:58 51.64003 -39.28384 37278 ft 442 kts 259°
2026-05-07 16:58 51.62191 -39.37825 37273 ft 443 kts 259°
2026-05-07 16:59 51.60377 -39.47237 37273 ft 443 kts 259°
2026-05-07 16:59 51.58556 -39.56633 37273 ft 442 kts 259°
2026-05-07 17:00 51.56723 -39.66039 37273 ft 443 kts 258°
2026-05-07 17:00 51.54870 -39.75493 37273 ft 444 kts 258°
2026-05-07 17:01 51.53014 -39.84908 37273 ft 444 kts 258°
2026-05-07 17:01 51.51157 -39.94312 37273 ft 444 kts 259°
2026-05-07 17:02 51.49670 -40.03787 37271 ft 439 kts 264°
2026-05-07 17:02 51.48644 -40.13374 37271 ft 438 kts 266°
2026-05-07 17:03 51.47640 -40.23003 37268 ft 438 kts 265°
2026-05-07 17:03 51.46631 -40.32574 37265 ft 438 kts 265°
2026-05-07 17:04 51.45606 -40.42187 37264 ft 438 kts 265°
2026-05-07 17:04 51.44579 -40.51739 37266 ft 438 kts 265°
2026-05-07 17:05 51.43572 -40.61013 37266 ft 439 kts 265°
2026-05-07 17:05 51.42521 -40.70633 37262 ft 440 kts 264°
2026-05-07 17:06 51.41468 -40.80210 37259 ft 439 kts 264°
2026-05-07 17:06 51.40400 -40.89827 37257 ft 440 kts 264°
2026-05-07 17:07 51.39325 -40.99426 37254 ft 439 kts 264°
2026-05-07 17:07 51.38248 -41.08977 37250 ft 439 kts 264°
2026-05-07 17:08 51.37163 -41.18525 37249 ft 439 kts 264°
2026-05-07 17:08 51.36068 -41.28096 37244 ft 439 kts 264°
2026-05-07 17:09 51.34963 -41.37672 37244 ft 439 kts 264°
2026-05-07 17:09 51.33847 -41.47268 37241 ft 439 kts 264°
2026-05-07 17:10 51.32731 -41.56792 37239 ft 439 kts 264°
2026-05-07 17:10 51.31604 -41.66346 37239 ft 439 kts 263°
2026-05-07 17:11 51.30470 -41.75890 37236 ft 439 kts 263°
2026-05-07 17:11 51.29330 -41.85415 37235 ft 439 kts 263°
2026-05-07 17:12 51.28181 -41.94951 37233 ft 440 kts 263°
2026-05-07 17:12 51.27024 -42.04475 37235 ft 439 kts 263°
2026-05-07 17:13 51.25853 -42.14043 37240 ft 439 kts 263°
2026-05-07 17:13 51.24675 -42.23597 37239 ft 439 kts 263°
2026-05-07 17:14 51.23494 -42.33123 37240 ft 439 kts 263°
2026-05-07 17:14 51.22306 -42.42636 37239 ft 440 kts 263°
2026-05-07 17:15 51.21107 -42.52158 37239 ft 440 kts 263°
2026-05-07 17:15 51.19899 -42.61697 37237 ft 440 kts 263°
2026-05-07 17:16 51.18690 -42.71169 37235 ft 440 kts 262°
2026-05-07 17:16 51.17463 -42.80712 37231 ft 439 kts 262°
2026-05-07 17:17 51.16240 -42.90164 37234 ft 440 kts 262°
2026-05-07 17:17 51.15002 -42.99677 37230 ft 439 kts 262°
2026-05-07 17:18 51.13761 -43.09151 37229 ft 440 kts 262°
2026-05-07 17:18 51.12513 -43.18607 37226 ft 440 kts 261°
2026-05-07 17:19 51.11248 -43.28129 37230 ft 440 kts 261°
2026-05-07 17:19 51.09985 -43.37570 37231 ft 439 kts 261°
2026-05-07 17:20 51.08713 -43.47024 37234 ft 439 kts 261°
2026-05-07 17:20 51.07428 -43.56494 37236 ft 438 kts 261°
2026-05-07 17:21 51.06147 -43.65890 37234 ft 438 kts 260°
2026-05-07 17:21 51.04851 -43.75321 37233 ft 437 kts 260°
2026-05-07 17:22 51.03560 -43.84672 37234 ft 437 kts 260°
2026-05-07 17:22 51.02249 -43.94112 37230 ft 437 kts 260°
2026-05-07 17:23 51.00940 -44.03471 37220 ft 438 kts 260°
2026-05-07 17:23 50.99620 -44.12848 37211 ft 438 kts 259°
2026-05-07 17:24 50.98288 -44.22242 37213 ft 438 kts 259°
2026-05-07 17:24 50.96941 -44.31692 37211 ft 438 kts 259°
2026-05-07 17:25 50.95597 -44.41056 37212 ft 438 kts 259°
2026-05-07 17:25 50.94247 -44.50408 37214 ft 437 kts 259°
2026-05-07 17:26 50.92888 -44.59776 37216 ft 437 kts 259°
2026-05-07 17:26 50.91528 -44.69085 37216 ft 436 kts 258°
2026-05-07 17:27 50.90152 -44.78444 37219 ft 438 kts 258°
2026-05-07 17:27 50.88766 -44.87809 37217 ft 438 kts 258°
2026-05-07 17:28 50.87381 -44.97133 37214 ft 437 kts 258°
2026-05-07 17:28 50.85981 -45.06487 37214 ft 438 kts 258°
2026-05-07 17:29 50.84584 -45.15769 37210 ft 437 kts 258°
2026-05-07 17:29 50.83168 -45.25118 37218 ft 437 kts 258°
2026-05-07 17:30 50.81750 -45.34425 37221 ft 437 kts 258°
2026-05-07 17:30 50.80329 -45.43699 37222 ft 437 kts 258°
2026-05-07 17:31 50.78897 -45.53000 37221 ft 436 kts 258°
2026-05-07 17:31 50.77461 -45.62259 37225 ft 436 kts 258°
2026-05-07 17:32 50.76018 -45.71518 37220 ft 436 kts 257°
2026-05-07 17:32 50.74809 -45.79240 37217 ft 436 kts 257°
2026-05-07 17:33 50.73107 -45.90041 37225 ft 436 kts 257°
2026-05-07 17:33 50.71645 -45.99265 37223 ft 437 kts 257°
2026-05-07 17:34 50.70166 -46.08544 37224 ft 436 kts 257°
2026-05-07 17:34 50.68688 -46.17771 37228 ft 436 kts 257°
2026-05-07 17:35 50.67202 -46.26991 37222 ft 436 kts 256°
2026-05-07 17:35 50.65704 -46.36228 37221 ft 435 kts 256°
2026-05-07 17:36 50.64204 -46.45429 37225 ft 435 kts 256°
2026-05-07 17:36 50.62703 -46.54588 37227 ft 434 kts 256°
2026-05-07 17:37 50.61189 -46.63774 37226 ft 433 kts 256°
2026-05-07 17:37 50.59678 -46.72893 37228 ft 433 kts 256°
2026-05-07 17:38 50.58166 -46.81980 37233 ft 433 kts 255°
2026-05-07 17:38 50.56639 -46.91103 37230 ft 433 kts 255°
2026-05-07 17:39 50.55098 -47.00257 37233 ft 433 kts 255°
2026-05-07 17:39 50.53558 -47.09357 37226 ft 432 kts 255°
2026-05-07 17:40 50.52019 -47.18406 37229 ft 432 kts 255°
2026-05-07 17:40 50.50463 -47.27501 37223 ft 431 kts 255°
2026-05-07 17:41 50.48909 -47.36548 37221 ft 431 kts 255°
2026-05-07 17:41 50.47354 -47.45555 37230 ft 431 kts 255°
2026-05-07 17:42 50.45781 -47.54617 37223 ft 429 kts 255°
2026-05-07 17:42 50.44215 -47.63583 37222 ft 428 kts 255°
2026-05-07 17:43 50.42638 -47.72565 37224 ft 429 kts 254°
2026-05-07 17:43 50.41054 -47.81546 37224 ft 428 kts 254°
2026-05-07 17:44 50.39478 -47.90454 37224 ft 427 kts 253°
2026-05-07 17:44 50.37888 -47.99382 37220 ft 427 kts 253°
2026-05-07 17:45 50.36288 -48.08316 37222 ft 426 kts 253°
2026-05-07 17:45 50.34688 -48.17207 37221 ft 426 kts 253°
2026-05-07 17:46 50.33085 -48.26081 37222 ft 426 kts 253°
2026-05-07 17:46 50.31470 -48.34972 37219 ft 425 kts 253°
2026-05-07 17:47 50.29863 -48.43772 37208 ft 423 kts 253°
2026-05-07 17:47 50.28247 -48.52586 37208 ft 422 kts 253°
2026-05-07 17:48 50.26633 -48.61350 37199 ft 422 kts 253°
2026-05-07 17:48 50.25003 -48.70149 37191 ft 421 kts 252°
2026-05-07 17:49 50.23377 -48.78886 37193 ft 421 kts 252°
2026-05-07 17:49 50.21747 -48.87611 37191 ft 420 kts 252°
2026-05-07 17:50 50.20103 -48.96368 37185 ft 419 kts 252°
2026-05-07 17:50 50.18471 -49.05009 37185 ft 419 kts 252°
2026-05-07 17:51 50.16828 -49.13679 37184 ft 418 kts 252°
2026-05-07 17:51 50.15175 -49.22353 37183 ft 418 kts 252°
2026-05-07 17:52 50.13516 -49.31019 37189 ft 417 kts 252°
2026-05-07 17:52 50.11855 -49.39667 37179 ft 418 kts 252°
2026-05-07 17:53 50.10199 -49.48237 37179 ft 417 kts 252°
2026-05-07 17:53 50.08532 -49.56829 37175 ft 417 kts 252°
2026-05-07 17:54 50.06851 -49.65450 37181 ft 415 kts 251°
2026-05-07 17:54 50.05176 -49.73999 37170 ft 414 kts 251°
2026-05-07 17:55 50.03505 -49.82480 37171 ft 414 kts 251°
2026-05-07 17:55 50.01812 -49.91021 37170 ft 413 kts 251°
2026-05-07 17:56 50.00102 -49.99552 37167 ft 414 kts 250°
2026-05-07 17:56 49.98151 -50.07894 37169 ft 414 kts 249°
2026-05-07 17:57 49.96496 -50.14834 37165 ft 413 kts 249°
2026-05-07 17:57 49.94160 -50.24551 37162 ft 414 kts 248°
2026-05-07 17:58 49.92150 -50.32864 37158 ft 414 kts 248°
2026-05-07 17:58 49.90119 -50.41227 37156 ft 414 kts 249°
2026-05-07 17:59 49.88094 -50.49529 37159 ft 415 kts 248°